Weather in Uvil'dy

Russia / Chelyabinsk Oblast     55°34′45″N   60°28′15″E
temp.,
°C
wind,
m/s
gust,
m/s
humid.,
%
clouds,
%
prec.,
mm/h
press.,
hPa
HPBL,
m
21 january, thu
thu2123:00−20wnw3109199 0.0 1014353
02:00−22wsw279197 0.0 1015261
05:00−23w379276 0.0 1015239
08:00−23w399034 0.0 1015244
11:00−20w4138767 0.0 1016469
14:00−17w5128386 0.0 1015469
17:00−19w249057 0.0 1014129
20:00−19w259197 0.0 1015168
22 january, fri
fri2223:00−21wnw4129078 0.0 1015369
02:00−21wnw389141 0.0 1016232
05:00−22w249333 0.0 101666
08:00−21wsw239291 0.0 101782
11:00−18wnw278895 0.0 1018386
14:00−16wnw2585100 0.0 1019622
17:00−17n1297100 0.1 102122
20:00−23ne2599100 0.3 1024231
23 january, sat
sat2323:00−26ne22100100 0.4 102734
02:00−30nne229996 0.0 103020
05:00−32nne119892 0.0 103319
08:00−33ese019985 0.0 103519
11:00−30sse129782 0.0 103689
14:00−27sse2495100 0.0 1035246
17:00−25sse2496100 0.0 1034205
20:00−24sse2596100 0.0 1034201
24 january, sun
sun2423:00−22sse2498100 0.3 1031211
02:00−20sse2698100 0.7 1030270
05:00−19sse1399100 1.1 1029167
08:00−19se1298100 0.3 102970
11:00−17se1296100 0.6 1029174
14:00−14se2395100 0.3 1028245
17:00−13se2496100 0.7 1027214
20:00−12se1297100 0.4 102891
25 january, mon
mon2523:00−10sse1297100 0.6 102746
02:00−5sw2395100 0.0 102698
05:00−2wsw21191100 0.0 1026518
08:00−2wsw31389100 0.0 1026557
11:000wsw21092100 0.0 1027746
14:000w41188100 0.0 1027768
17:00−1w31189100 0.0 1028550
20:00−2w2790100 0.0 1029289